Time,TemperatureF,DewpointF,PressureIn,WindDirection,WindDirectionDegrees,WindSpeedMPH,WindSpeedGustMPH,Humidity,HourlyPrecipIn,Conditions,Clouds,dailyrainin,SoftwareType,DateUTC
2013-04-29 00:03:00,55.0,55.0,-100.00,West,280,2.0,6.0,98,0.00,,,-99.99,,2013-04-29 04:03:00,
2013-04-29 00:13:00,55.0,55.0,-100.00,SW,235,1.0,5.0,98,0.00,,,-99.99,,2013-04-29 04:13:00,
2013-04-29 00:23:00,56.0,55.0,-100.00,SSW,205,2.0,4.0,98,0.00,,,-99.99,,2013-04-29 04:23:00,
2013-04-29 00:33:00,56.0,56.0,-100.00,SSW,200,4.0,4.0,98,0.00,,,-99.99,,2013-04-29 04:33:00,
2013-04-29 00:43:00,56.0,56.0,-100.00,South,185,4.0,6.0,98,0.00,,,-99.99,,2013-04-29 04:43:00,
2013-04-29 00:52:00,56.0,56.0,-100.00,SSW,195,2.0,6.0,98,0.00,,,-99.99,,2013-04-29 04:52:00,
2013-04-29 01:02:00,57.0,56.0,-100.00,SSW,195,6.0,9.0,98,0.00,,,-99.99,,2013-04-29 05:02:00,
2013-04-29 01:12:00,57.0,56.0,-100.00,SSW,200,6.0,9.0,98,0.00,,,-99.99,,2013-04-29 05:12:00,
2013-04-29 01:22:00,57.0,56.0,-100.00,SSW,210,7.0,9.0,98,0.00,,,-99.99,,2013-04-29 05:22:00,
2013-04-29 01:32:00,57.0,56.0,-100.00,SSW,195,7.0,11.0,98,0.00,,,-99.99,,2013-04-29 05:32:00,
2013-04-29 01:42:00,57.0,56.0,-100.00,SSW,210,7.0,10.0,98,0.00,,,-99.99,,2013-04-29 05:42:00,
2013-04-29 01:52:00,57.0,56.0,-100.00,SSW,200,7.0,11.0,98,0.00,,,-99.99,,2013-04-29 05:52:00,
2013-04-29 02:02:00,57.0,56.0,-100.00,SSW,205,8.0,11.0,98,0.00,,,-99.99,,2013-04-29 06:02:00,
2013-04-29 02:11:00,57.0,56.0,-100.00,SSW,205,8.0,10.0,98,0.00,,,-99.99,,2013-04-29 06:11:00,
2013-04-29 02:21:00,57.0,56.0,-100.00,SSW,205,7.0,10.0,98,0.00,,,-99.99,,2013-04-29 06:21:00,
2013-04-29 02:32:00,57.0,56.0,-100.00,SSW,205,9.0,11.0,98,0.00,,,-99.99,,2013-04-29 06:32:00,
2013-04-29 02:42:00,57.0,56.0,-100.00,SSW,210,9.0,10.0,98,0.00,,,-99.99,,2013-04-29 06:42:00,
2013-04-29 02:52:00,57.0,56.0,-100.00,SSW,210,9.0,12.0,98,0.00,,,-99.99,,2013-04-29 06:52:00,
2013-04-29 03:01:00,57.0,56.0,-100.00,SW,220,9.0,11.0,97,0.00,,,-99.99,,2013-04-29 07:01:00,
2013-04-29 03:11:00,57.0,56.0,-100.00,SW,230,9.0,12.0,96,0.00,,,-99.99,,2013-04-29 07:11:00,
2013-04-29 03:21:00,57.0,56.0,-100.00,WSW,240,7.0,11.0,95,0.00,,,-99.99,,2013-04-29 07:21:00,
2013-04-29 03:32:00,57.0,56.0,-100.00,WSW,245,9.0,11.0,95,0.00,,,-99.99,,2013-04-29 07:32:00,
2013-04-29 03:42:00,57.0,56.0,-100.00,WSW,245,9.0,12.0,95,0.00,,,-99.99,,2013-04-29 07:42:00,
2013-04-29 03:52:00,57.0,56.0,-100.00,WSW,240,12.0,15.0,95,0.00,,,-99.99,,2013-04-29 07:52:00,
2013-04-29 04:03:00,57.0,56.0,-100.00,WSW,240,10.0,16.0,95,0.00,,,-99.99,,2013-04-29 08:03:00,
2013-04-29 04:11:00,57.0,55.0,-100.00,SW,230,7.0,12.0,95,0.00,,,-99.99,,2013-04-29 08:11:00,
2013-04-29 04:21:00,57.0,55.0,-100.00,SW,235,9.0,11.0,94,0.00,,,-99.99,,2013-04-29 08:21:00,
2013-04-29 04:32:00,57.0,55.0,-100.00,SW,220,7.0,12.0,94,0.00,,,-99.99,,2013-04-29 08:32:00,
2013-04-29 04:42:00,57.0,55.0,-100.00,West,265,6.0,9.0,94,0.00,,,-99.99,,2013-04-29 08:42:00,
2013-04-29 04:51:00,56.0,55.0,-100.00,WSW,255,7.0,11.0,94,0.00,,,-99.99,,2013-04-29 08:51:00,
2013-04-29 05:01:00,55.0,54.0,-100.00,WNW,285,7.0,12.0,95,0.00,,,-99.99,,2013-04-29 09:01:00,
2013-04-29 05:12:00,55.0,54.0,-100.00,West,260,7.0,11.0,96,0.00,,,-99.99,,2013-04-29 09:12:00,
2013-04-29 05:21:00,55.0,54.0,-100.00,WSW,245,7.0,11.0,96,0.00,,,-99.99,,2013-04-29 09:21:00,
2013-04-29 05:33:00,55.0,54.0,-100.00,WSW,250,8.0,11.0,95,0.00,,,-99.99,,2013-04-29 09:33:00,
2013-04-29 05:42:00,55.0,54.0,-100.00,WSW,250,7.0,13.0,94,0.00,,,-99.99,,2013-04-29 09:42:00,
2013-04-29 05:52:00,55.0,54.0,-100.00,WSW,250,6.0,9.0,94,0.00,,,-99.99,,2013-04-29 09:52:00,
2013-04-29 06:02:00,55.0,54.0,-100.00,WSW,250,6.0,9.0,94,0.00,,,-99.99,,2013-04-29 10:02:00,
2013-04-29 06:12:00,55.0,53.0,-100.00,West,280,6.0,11.0,93,0.00,,,-99.99,,2013-04-29 10:12:00,
2013-04-29 06:23:00,55.0,53.0,-100.00,WSW,250,6.0,9.0,93,0.00,,,-99.99,,2013-04-29 10:23:00,
2013-04-29 06:32:00,55.0,53.0,-100.00,West,260,4.0,7.0,93,0.00,,,-99.99,,2013-04-29 10:32:00,
2013-04-29 06:42:00,55.0,53.0,-100.00,West,260,5.0,7.0,93,0.00,,,-99.99,,2013-04-29 10:42:00,
2013-04-29 06:52:00,55.0,53.0,-100.00,WSW,245,6.0,9.0,93,0.00,,,-99.99,,2013-04-29 10:52:00,
2013-04-29 07:03:00,55.0,53.0,-100.00,WSW,245,5.0,11.0,93,0.00,,,-99.99,,2013-04-29 11:03:00,
2013-04-29 07:12:00,55.0,53.0,-100.00,WSW,240,5.0,9.0,93,0.00,,,-99.99,,2013-04-29 11:12:00,
2013-04-29 07:21:00,55.0,53.0,-100.00,WSW,240,6.0,10.0,93,0.00,,,-99.99,,2013-04-29 11:21:00,
2013-04-29 07:32:00,55.0,53.0,-100.00,WSW,250,6.0,9.0,93,0.00,,,-99.99,,2013-04-29 11:32:00,
2013-04-29 07:42:00,55.0,53.0,-100.00,West,260,6.0,10.0,93,0.00,,,-99.99,,2013-04-29 11:42:00,
2013-04-29 07:52:00,55.0,53.0,-100.00,West,275,5.0,11.0,93,0.00,,,-99.99,,2013-04-29 11:52:00,
2013-04-29 08:01:00,55.0,53.0,-100.00,WSW,255,7.0,10.0,92,0.00,,,-99.99,,2013-04-29 12:01:00,
2013-04-29 08:12:00,55.0,53.0,-100.00,West,270,6.0,9.0,92,0.00,,,-99.99,,2013-04-29 12:12:00,
2013-04-29 08:22:00,55.0,53.0,-100.00,WSW,255,7.0,13.0,90,0.00,,,-99.99,,2013-04-29 12:22:00,
2013-04-29 08:32:00,55.0,53.0,-100.00,West,265,8.0,11.0,90,0.00,,,-99.99,,2013-04-29 12:32:00,
2013-04-29 08:42:00,55.0,52.0,-100.00,WSW,250,7.0,11.0,89,0.00,,,-99.99,,2013-04-29 12:42:00,
2013-04-29 08:52:00,55.0,52.0,-100.00,West,270,6.0,11.0,89,0.00,,,-99.99,,2013-04-29 12:52:00,
2013-04-29 09:01:00,56.0,53.0,-100.00,WNW,285,6.0,11.0,89,0.00,,,-99.99,,2013-04-29 13:01:00,
2013-04-29 09:11:00,56.0,53.0,-100.00,West,260,4.0,11.0,89,0.00,,,-99.99,,2013-04-29 13:11:00,
2013-04-29 09:21:00,56.0,53.0,-100.00,SW,235,6.0,10.0,88,0.00,,,-99.99,,2013-04-29 13:21:00,
2013-04-29 09:32:00,56.0,53.0,-100.00,SW,225,6.0,8.0,89,0.00,,,-99.99,,2013-04-29 13:32:00,
2013-04-29 09:42:00,56.0,52.0,-100.00,WSW,245,6.0,9.0,88,0.00,,,-99.99,,2013-04-29 13:42:00,
2013-04-29 09:52:00,56.0,52.0,-100.00,WSW,245,6.0,9.0,87,0.00,,,-99.99,,2013-04-29 13:52:00,
2013-04-29 10:02:00,56.0,52.0,-100.00,WSW,250,7.0,10.0,87,0.00,,,-99.99,,2013-04-29 14:02:00,
2013-04-29 10:11:00,56.0,52.0,-100.00,West,275,4.0,11.0,87,0.00,,,-99.99,,2013-04-29 14:11:00,
2013-04-29 10:21:00,56.0,53.0,-100.00,West,260,6.0,10.0,86,0.00,,,-99.99,,2013-04-29 14:21:00,
2013-04-29 10:32:00,57.0,53.0,-100.00,WNW,290,6.0,10.0,85,0.00,,,-99.99,,2013-04-29 14:32:00,
2013-04-29 10:42:00,57.0,53.0,-100.00,WNW,285,5.0,11.0,84,0.00,,,-99.99,,2013-04-29 14:42:00,
2013-04-29 10:52:00,58.0,52.0,-100.00,West,270,4.0,9.0,83,0.00,,,-99.99,,2013-04-29 14:52:00,
2013-04-29 11:01:00,58.0,53.0,-100.00,West,280,6.0,10.0,82,0.00,,,-99.99,,2013-04-29 15:01:00,
2013-04-29 11:12:00,59.0,52.0,-100.00,WNW,285,7.0,11.0,80,0.00,,,-99.99,,2013-04-29 15:12:00,
2013-04-29 11:21:00,59.0,52.0,-100.00,NW,305,4.0,9.0,77,0.00,,,-99.99,,2013-04-29 15:21:00,
2013-04-29 11:33:00,60.0,52.0,-100.00,West,275,4.0,8.0,76,0.00,,,-99.99,,2013-04-29 15:33:00,
2013-04-29 11:42:00,60.0,52.0,-100.00,West,270,4.0,11.0,76,0.00,,,-99.99,,2013-04-29 15:42:00,
2013-04-29 11:53:00,61.0,52.0,-100.00,West,275,7.0,11.0,73,0.00,,,-99.99,,2013-04-29 15:53:00,
2013-04-29 12:03:00,61.0,51.0,-100.00,NW,310,5.0,10.0,71,0.00,,,-99.99,,2013-04-29 16:03:00,
2013-04-29 12:12:00,61.0,51.0,-100.00,WNW,300,4.0,12.0,70,0.00,,,-99.99,,2013-04-29 16:12:00,
2013-04-29 12:23:00,62.0,51.0,-100.00,NW,305,5.0,11.0,68,0.00,,,-99.99,,2013-04-29 16:23:00,
2013-04-29 12:33:00,62.0,51.0,-100.00,WNW,285,4.0,11.0,66,0.00,,,-99.99,,2013-04-29 16:33:00,
2013-04-29 12:42:00,62.0,51.0,-100.00,WNW,285,4.0,8.0,66,0.00,,,-99.99,,2013-04-29 16:42:00,
2013-04-29 12:52:00,62.0,50.0,-100.00,West,260,5.0,10.0,65,0.00,,,-99.99,,2013-04-29 16:52:00,
2013-04-29 13:02:00,63.0,51.0,-100.00,South,185,4.0,7.0,66,0.00,,,-99.99,,2013-04-29 17:02:00,
2013-04-29 13:12:00,64.0,51.0,-100.00,WNW,290,2.0,8.0,64,0.00,,,-99.99,,2013-04-29 17:12:00,
2013-04-29 13:22:00,63.0,51.0,-100.00,South,175,5.0,9.0,65,0.00,,,-99.99,,2013-04-29 17:22:00,
2013-04-29 13:32:00,63.0,51.0,-100.00,South,185,4.0,9.0,65,0.00,,,-99.99,,2013-04-29 17:32:00,
2013-04-29 13:42:00,62.0,51.0,-100.00,SSW,195,9.0,12.0,66,0.00,,,-99.99,,2013-04-29 17:42:00,
2013-04-29 13:52:00,63.0,52.0,-100.00,SSW,200,6.0,11.0,67,0.00,,,-99.99,,2013-04-29 17:52:00,
2013-04-29 14:01:00,63.0,51.0,-100.00,SSW,200,7.0,11.0,65,0.00,,,-99.99,,2013-04-29 18:01:00,
2013-04-29 14:13:00,63.0,50.0,-100.00,SSW,210,9.0,12.0,62,0.00,,,-99.99,,2013-04-29 18:13:00,
2013-04-29 14:22:00,64.0,51.0,-100.00,South,185,6.0,9.0,62,0.00,,,-99.99,,2013-04-29 18:22:00,
2013-04-29 14:32:00,64.0,51.0,-100.00,SW,220,7.0,9.0,62,0.00,,,-99.99,,2013-04-29 18:32:00,
2013-04-29 14:42:00,64.0,50.0,-100.00,South,175,4.0,11.0,60,0.00,,,-99.99,,2013-04-29 18:42:00,
2013-04-29 14:51:00,65.0,52.0,-100.00,South,175,4.0,9.0,60,0.00,,,-99.99,,2013-04-29 18:51:00,
2013-04-29 15:01:00,66.0,51.0,-100.00,WSW,240,4.0,11.0,58,0.00,,,-99.99,,2013-04-29 19:01:00,
2013-04-29 15:11:00,66.0,51.0,-100.00,SW,225,4.0,9.0,58,0.00,,,-99.99,,2013-04-29 19:11:00,
2013-04-29 15:21:00,66.0,52.0,-100.00,South,180,4.0,8.0,60,0.00,,,-99.99,,2013-04-29 19:21:00,
2013-04-29 15:32:00,65.0,51.0,-100.00,SSW,200,7.0,10.0,60,0.00,,,-99.99,,2013-04-29 19:32:00,
2013-04-29 15:41:00,66.0,53.0,-100.00,South,180,2.0,11.0,61,0.00,,,-99.99,,2013-04-29 19:41:00,
2013-04-29 15:52:00,66.0,52.0,-100.00,SW,220,4.0,8.0,60,0.00,,,-99.99,,2013-04-29 19:52:00,
2013-04-29 16:02:00,66.0,51.0,-100.00,SW,225,4.0,9.0,58,0.00,,,-99.99,,2013-04-29 20:02:00,
2013-04-29 16:12:00,67.0,51.0,-100.00,South,180,4.0,9.0,56,0.00,,,-99.99,,2013-04-29 20:12:00,
2013-04-29 16:21:00,67.0,52.0,-100.00,SE,135,6.0,12.0,58,0.00,,,-99.99,,2013-04-29 20:21:00,
2013-04-29 16:32:00,67.0,51.0,-100.00,SW,235,7.0,10.0,56,0.00,,,-99.99,,2013-04-29 20:32:00,
2013-04-29 16:42:00,67.0,51.0,-100.00,SW,220,11.0,12.0,56,0.00,,,-99.99,,2013-04-29 20:42:00,
2013-04-29 16:52:00,68.0,51.0,-100.00,SW,215,9.0,12.0,53,0.00,,,-99.99,,2013-04-29 20:52:00,
2013-04-29 17:01:00,68.0,50.0,-100.00,SSW,205,6.0,12.0,54,0.00,,,-99.99,,2013-04-29 21:01:00,
2013-04-29 17:11:00,69.0,51.0,-100.00,SSW,195,3.0,14.0,53,0.00,,,-99.99,,2013-04-29 21:11:00,
2013-04-29 17:21:00,68.0,51.0,-100.00,WSW,240,6.0,12.0,54,0.00,,,-99.99,,2013-04-29 21:21:00,
2013-04-29 17:33:00,68.0,50.0,-100.00,SSW,200,9.0,13.0,53,0.00,,,-99.99,,2013-04-29 21:33:00,
2013-04-29 17:42:00,69.0,51.0,-100.00,South,190,7.0,12.0,52,0.00,,,-99.99,,2013-04-29 21:42:00,
2013-04-29 17:53:00,68.0,51.0,-100.00,SSW,200,10.0,14.0,54,0.00,,,-99.99,,2013-04-29 21:53:00,
2013-04-29 18:02:00,68.0,50.0,-100.00,SSW,200,10.0,13.0,52,0.00,,,-99.99,,2013-04-29 22:02:00,
2013-04-29 18:13:00,68.0,51.0,-100.00,SW,225,7.0,12.0,55,0.00,,,-99.99,,2013-04-29 22:13:00,
2013-04-29 18:23:00,68.0,51.0,-100.00,SW,225,9.0,14.0,55,0.00,,,-99.99,,2013-04-29 22:23:00,
2013-04-29 18:32:00,68.0,51.0,-100.00,SSW,195,7.0,12.0,55,0.00,,,-99.99,,2013-04-29 22:32:00,
2013-04-29 18:42:00,68.0,51.0,-100.00,SSW,195,6.0,13.0,54,0.00,,,-99.99,,2013-04-29 22:42:00,
2013-04-29 18:52:00,68.0,51.0,-100.00,SSW,200,10.0,15.0,54,0.00,,,-99.99,,2013-04-29 22:52:00,
2013-04-29 19:02:00,68.0,53.0,-100.00,South,175,9.0,13.0,60,0.00,,,-99.99,,2013-04-29 23:02:00,
2013-04-29 19:11:00,67.0,52.0,-100.00,SSW,205,11.0,15.0,58,0.00,,,-99.99,,2013-04-29 23:11:00,
2013-04-29 19:22:00,67.0,54.0,-100.00,SSW,195,10.0,17.0,62,0.00,,,-99.99,,2013-04-29 23:22:00,
2013-04-29 19:32:00,67.0,54.0,-100.00,SSW,200,9.0,16.0,63,0.00,,,-99.99,,2013-04-29 23:32:00,
2013-04-29 19:42:00,67.0,54.0,-100.00,SSE,165,12.0,16.0,61,0.00,,,-99.99,,2013-04-29 23:42:00,
2013-04-29 19:52:00,67.0,53.0,-100.00,SSW,195,11.0,17.0,61,0.00,,,-99.99,,2013-04-29 23:52:00,
2013-04-29 20:01:00,67.0,54.0,-100.00,South,180,12.0,16.0,62,0.00,,,-99.99,,2013-04-30 00:01:00,
2013-04-29 20:11:00,67.0,54.0,-100.00,South,180,12.0,16.0,64,0.00,,,-99.99,,2013-04-30 00:11:00,
2013-04-29 20:21:00,66.0,54.0,-100.00,South,190,12.0,17.0,64,0.00,,,-99.99,,2013-04-30 00:21:00,
2013-04-29 20:32:00,66.0,54.0,-100.00,SSW,195,13.0,17.0,65,0.00,,,-99.99,,2013-04-30 00:32:00,
2013-04-29 20:42:00,66.0,54.0,-100.00,SSW,200,9.0,16.0,65,0.00,,,-99.99,,2013-04-30 00:42:00,
2013-04-29 20:51:00,66.0,53.0,-100.00,SSW,195,9.0,13.0,64,0.00,,,-99.99,,2013-04-30 00:51:00,
2013-04-29 21:02:00,65.0,53.0,-100.00,SSW,200,6.0,11.0,65,0.00,,,-99.99,,2013-04-30 01:02:00,
2013-04-29 21:11:00,65.0,53.0,-100.00,SSW,200,7.0,11.0,65,0.00,,,-99.99,,2013-04-30 01:11:00,
2013-04-29 21:22:00,65.0,53.0,-100.00,South,190,6.0,11.0,65,0.00,,,-99.99,,2013-04-30 01:22:00,
2013-04-29 21:32:00,65.0,53.0,-100.00,South,185,7.0,10.0,66,0.00,,,-99.99,,2013-04-30 01:32:00,
2013-04-29 21:41:00,64.0,53.0,-100.00,South,180,6.0,9.0,66,0.00,,,-99.99,,2013-04-30 01:41:00,
2013-04-29 21:51:00,64.0,53.0,-100.00,South,175,7.0,10.0,68,0.00,,,-99.99,,2013-04-30 01:51:00,
2013-04-29 22:01:00,64.0,53.0,-100.00,SSE,165,7.0,10.0,69,0.00,,,-99.99,,2013-04-30 02:01:00,
2013-04-29 22:11:00,63.0,54.0,-100.00,South,170,9.0,12.0,71,0.00,,,-99.99,,2013-04-30 02:11:00,
2013-04-29 22:21:00,63.0,54.0,-100.00,South,170,7.0,12.0,72,0.00,,,-99.99,,2013-04-30 02:21:00,
2013-04-29 22:31:00,62.0,54.0,-100.00,South,170,7.0,10.0,73,0.00,,,-99.99,,2013-04-30 02:31:00,
2013-04-29 22:41:00,62.0,54.0,-100.00,South,180,6.0,9.0,74,0.00,,,-99.99,,2013-04-30 02:41:00,
2013-04-29 22:51:00,62.0,54.0,-100.00,South,185,6.0,9.0,75,0.00,,,-99.99,,2013-04-30 02:51:00,
2013-04-29 23:01:00,61.0,54.0,-100.00,South,185,6.0,9.0,76,0.00,,,-99.99,,2013-04-30 03:01:00,
2013-04-29 23:11:00,61.0,54.0,-100.00,South,175,7.0,11.0,77,0.00,,,-99.99,,2013-04-30 03:11:00,
2013-04-29 23:21:00,61.0,54.0,-100.00,South,175,7.0,11.0,78,0.00,,,-99.99,,2013-04-30 03:21:00,
2013-04-29 23:33:00,60.0,54.0,-100.00,South,185,7.0,12.0,78,0.00,,,-99.99,,2013-04-30 03:33:00,
2013-04-29 23:42:00,60.0,54.0,-100.00,South,185,7.0,11.0,79,0.00,,,-99.99,,2013-04-30 03:42:00,
2013-04-29 23:52:00,60.0,54.0,-100.00,South,185,7.0,11.0,79,0.00,,,-99.99,,2013-04-30 03:52:00,